EW9842 Weather Reports


time (UTC)temp
F
wind
direction
speed
knots
gust
knots
rain 1hr
in
rain 24hr
in
rain mn
in
humidity
%
barometer
mb
20200531073040 48 16 1.7 0.0 0.00 0.15 0.00 75 1015.5
20200531071538 49 340 1.7 0.0 0.00 0.15 0.00 75 1015.1
20200531070032 49 270 1.7 0.0 0.00 0.15 0.00 76 1015.5
20200531064537 49 342 1.7 0.0 0.00 0.15 0.00 75 1015.5
20200531063048 49 284 2.6 0.0 0.00 0.15 0.00 75 1015.5
20200531061536 49 236 2.6 0.0 0.00 0.15 0.00 75 1015.5
20200531060041 49 241 2.6 0.0 0.00 0.15 0.00 76 1015.5
20200531054543 49 275 2.6 0.0 0.00 0.15 0.00 77 1015.5
20200531053050 49 291 1.7 0.0 0.00 0.15 0.00 77 1015.5
20200531051540 49 253 0.9 0.0 0.00 0.15 0.00 78 1015.5
20200531050033 49 58 0.0 0.0 0.00 0.15 0.00 77 1015.5
20200531044541 49 241 2.6 0.0 0.00 0.15 0.00 77 1015.5
20200531043039 49 248 2.6 0.0 0.00 0.15 0.00 76 1015.1
20200531041553 49 221 3.5 0.0 0.00 0.15 0.00 75 1015.5
20200531040044 49 244 5.2 0.0 0.00 0.15 0.00 73 1015.1
20200531034529 49 292 6.1 0.0 0.00 0.15 0.00 71 1015.1
20200531033037 50 297 7.0 0.0 0.00 0.15 0.00 71 1014.4
20200531031534 50 297 4.3 0.0 0.00 0.15 0.00 74 1014.0
20200531030052 50 302 4.3 0.0 0.00 0.15 0.00 77 1014.4
20200531024534 49 298 4.3 0.0 0.00 0.15 0.00 78 1014.4
20200531023037 49 306 3.5 0.0 0.00 0.15 0.00 79 1014.4
20200531021555 49 312 0.0 0.0 0.00 0.15 0.00 78 1014.0
20200531020035 49 331 0.0 0.0 0.00 0.15 0.00 76 1014.0
20200531014544 50 294 0.0 0.0 0.00 0.15 0.00 75 1014.0
20200531013033 50 281 0.0 0.0 0.00 0.15 0.00 77 1013.7
20200531011534 51 288 0.0 0.0 0.01 0.15 0.00 79 1013.3
20200531010040 51 345 0.0 0.0 0.01 0.15 0.00 80 1013.0
20200531004547 51 87 0.0 0.0 0.02 0.15 0.00 83 1013.0
20200531003048 51 31 0.0 0.0 0.04 0.15 0.00 82 1013.3
20200531001541 51 283 0.0 0.0 0.04 0.14 0.00 81 1013.0
20200531000040 51 333 0.0 0.0 0.07 0.14 0.00 80 1012.6
20200530234545 52 316 2.6 0.0 0.09 0.13 0.00 79 1011.9
20200530233045 52 257 0.0 0.0 0.11 0.11 0.00 77 1011.9
20200530231532 51 204 0.0 0.0 0.10 0.10 0.00 84 1011.2
20200530230037 51 19 0.0 0.0 0.07 0.07 0.00 80 1011.9
20200530224538 53 33 0.0 0.0 0.04 0.04 0.00 72 1012.3
20200530223034 54 35 0.0 0.0 0.00 0.00 0.00 81 1011.9
20200530221529 56 248 0.0 0.0 0.00 0.00 0.00 68 1011.2
20200530220040 58 228 0.0 0.0 0.00 0.00 0.00 66 1010.1
20200530214549 59 249 0.0 0.0 0.00 0.00 0.00 63 1009.4
20200530213047 62 312 0.0 0.0 0.00 0.00 0.00 60 1009.0
20200530211534 63 289 0.0 0.0 0.00 0.00 0.00 59 1009.0
20200530204552 67 280 0.0 0.0 0.00 0.00 0.00 55 1008.7
20200530203037 70 282 0.0 0.0 0.00 0.00 0.00 54 1008.3
20200530201537 71 298 0.0 0.0 0.00 0.00 0.00 54 1008.0
20200530200037 72 289 4.3 0.0 0.00 0.00 0.00 54 1007.6
20200530194545 73 285 5.2 0.0 0.00 0.00 0.00 54 1007.3
20200530193044 74 282 8.7 0.0 0.00 0.00 0.00 53 1007.3
20200530191545 76 277 7.0 0.0 0.00 0.00 0.00 52 1007.3
20200530190039 76 318 3.5 0.0 0.00 0.00 0.00 55 1007.3
20200530184541 75 336 3.5 0.0 0.00 0.00 0.00 55 1007.3
20200530183055 76 335 2.6 0.0 0.00 0.00 0.00 55 1007.3
20200530181530 75 9 0.9 0.0 0.00 0.00 0.00 57 1007.3
20200530180029 73 114 0.0 0.0 0.00 0.00 0.00 60 1007.6
20200530174538 70 135 0.0 0.0 0.00 0.00 0.00 62 1008.0
20200530173046 70 303 0.0 0.0 0.00 0.00 0.00 63 1008.3
20200530171611 69 312 1.7 0.0 0.00 0.00 0.00 65 1008.3
20200530170048 68 314 3.5 0.0 0.00 0.00 0.00 65 1008.3
20200530164539 69 318 3.5 0.0 0.00 0.00 0.00 63 1008.7
20200530163046 72 334 1.7 0.0 0.00 0.00 0.00 59 1009.0
20200530161540 72 133 0.9 0.0 0.00 0.00 0.00 59 1009.4
20200530160047 69 62 0.0 0.0 0.00 0.00 0.00 63 1009.4
20200530154538 67 356 0.0 0.0 0.00 0.00 0.00 65 1009.8
20200530153047 66 310 0.9 0.0 0.00 0.00 0.00 67 1009.8
20200530151535 64 321 0.0 0.0 0.00 0.00 0.00 70 1009.8
20200530150038 63 357 0.0 0.0 0.00 0.00 0.00 71 1009.8
20200530144532 63 43 0.9 0.0 0.00 0.00 0.00 74 1010.1
20200530143029 62 48 0.9 0.0 0.00 0.00 0.00 77 1010.1
20200530141536 61 354 2.6 0.0 0.00 0.00 0.00 81 1010.5
20200530140036 60 9 1.7 0.0 0.00 0.00 0.00 84 1010.5
20200530134544 60 166 0.9 0.0 0.00 0.00 0.00 85 1010.1
20200530133031 59 216 1.7 0.0 0.00 0.00 0.00 84 1009.4
20200530131531 59 194 0.9 0.0 0.00 0.00 0.00 82 1009.4
20200530130034 59 139 0.9 0.0 0.00 0.00 0.00 82 1009.8
20200530124531 59 77 0.9 0.0 0.00 0.00 0.00 82 1009.8
20200530123040 59 216 1.7 0.0 0.00 0.00 0.00 81 1009.8
20200530121530 59 159 1.7 0.0 0.00 0.00 0.00 80 1009.8
20200530120047 59 153 0.9 0.0 0.00 0.00 0.00 80 1010.1
20200530114530 59 147 1.7 0.0 0.00 0.00 0.00 79 1010.1
20200530113034 59 144 1.7 0.0 0.00 0.00 0.00 79 1010.1
20200530111540 59 124 2.6 0.0 0.00 0.00 0.00 78 1010.1
20200530110037 60 179 2.6 0.0 0.00 0.00 0.00 78 1009.8
20200530104541 60 136 2.6 0.0 0.00 0.00 0.00 77 1010.1
20200530103031 59 171 2.6 0.0 0.00 0.00 0.00 78 1010.1
20200530100034 60 169 2.6 0.0 0.00 0.00 0.00 77 1010.1
20200530094534 61 121 0.9 0.0 0.00 0.00 0.00 75 1010.5
20200530093037 61 172 2.6 0.0 0.00 0.00 0.00 75 1010.8
20200530091535 61 149 2.6 0.0 0.00 0.00 0.00 74 1010.8
20200530090029 62 195 2.6 0.0 0.00 0.00 0.00 73 1011.2
20200530084624 62 148 2.6 0.0 0.00 0.00 0.00 73 1011.2
20200530083038 62 146 1.7 0.0 0.00 0.00 0.00 73 1011.5
20200530081533 62 148 1.7 0.0 0.00 0.00 0.00 72 1011.5
20200530080033 62 157 2.6 0.0 0.00 0.00 0.00 72 1011.5
20200530074529 62 159 2.6 0.0 0.00 0.00 0.00 71 1011.5